フルス彗星

P/2021 N2 ( Fuls )

English version
Home page
Updated on July 24, 2022

---------------------------------------------------------------------

・ プロフィール

発見日 2021年7月9日
発見光度 18.3等
発見者 David Carson Fuls (Catalina Sky Survey)

・ 写真集

・ 軌道要素

Epoch 2022 Jan. 21.0 TT = JDT 2459600.5
T 2021 Nov. 13.29891 TT                                 Rudenko
q   3.7965891            (2000.0)            P               Q
n   0.05399191     Peri.  177.34491     +0.77538749     -0.61329446
a   6.9329315      Node   221.74244     +0.57513248     +0.78424924
e   0.4523833      Incl.   13.06281     +0.26076209     +0.09393102
P  18.3
From 713 observations 2021 June 27-2022 Feb. 22, mean residual 0".3.

・ 星図

・ 光度変化

        m1 = -44.5 + 5 logΔ + 100   log r(t - 30)  [  ,30]  (              〜2021年12月12日)
        m1 =   1.8 + 5 logΔ +  20.0 log r          [30,  ]  (2021年12月12日〜              )

---------------------------------------------------------------------

軌道要素はM.P.E.C. 2022-D36に掲載されたものです。
星図はステラナビゲータ Ver.10 (アストロアーツ) で作成したものです。
光度グラフはComet for Windowsで作成したものです。

---------------------------------------------------------------------

Copyright(C) Seiichi Yoshida (comet@aerith.net). All rights reserved.